Bismarck, ND

3:11 PM CDT on March 26, 2017 (GMT -0500)
Bismarck Municipal

Weather History for KBIS - January, 2012

Change the Weather History Date:

Sunday, January 29, 2012

  Actual Average Record
Temperature  
Mean Temperature 17 °F 14 °F  
Max Temperature 28 °F 25 °F 59 °F (1931)
Min Temperature 6 °F 3 °F -39 °F (1966)
Degree Days  
Heating Degree Days 48 51  
Month to date heating degree days 1244 1518  
Since 1 July heating degree days 4206 5018  
Cooling Degree Days 0 0  
Month to date cooling degree days 0 0  
Year to date cooling degree days 0 0  
Moisture  
Dew Point 15 °F    
Average Humidity 80    
Maximum Humidity 92    
Minimum Humidity 68    
Precipitation  
Precipitation 0.01 in 0.02 in 0.23 in (1875)
Month to date precipitation 0.30 0.41  
Year to date precipitation 0.30 0.41  
Snow  
Snow 0.30 in 0.20 in 3.50 in (1917)
Month to date snowfall 1.9 8.4  
Since 1 July snowfall 5.8 28.9  
Snow Depth T in    
Sea Level Pressure  
Sea Level Pressure 29.94 in    
Wind  
Wind Speed 9 mph (SSE)    
Max Wind Speed 21 mph    
Max Gust Speed 25 mph    
Visibility 8 miles    
Events Snow    
T = Trace of Precipitation, MM = Missing Value Source: NWS Daily Summary

Daily Weather History Graph

Daily Weather History Graph

Search for Another Location

Airport or City:

Trip Planner

Search our weather history database for the weather conditions in past years. The results will help you decide how hot, cold, wet, or windy it might be!

Date:

Astronomy

Jan. 29, 2012 Rise Set
Actual Time 8:11 AM CST 5:41 PM CST
Civil Twilight 7:38 AM CST 6:14 PM CST
Nautical Twilight 7:02 AM CST 6:50 PM CST
Astronomical Twilight 6:26 AM CST 7:26 PM CST
Moon 10:34 AM CST (1/29) No Moon Set
Length of Visible Light 10h 35m
Length of Day
9h 29m
Waxing Crescent, 37% of the Moon is Illuminated
Jan 29
Waxing Crescent
Jan 30
First Quarter
Feb 7
Full
Feb 14
Last Quarter
Feb 21
New

Hourly Weather History & Observations

Time (CST) Temp. Windchill Dew Point Humidity Pressure Visibility Wind Dir Wind Speed Gust Speed Precip Events Conditions
12:52 AM 16.0 °F 8.8 °F 10.9 °F 81% 30.19 in 10.0 mi NNW 4.6 mph - N/A   Clear
1:52 AM 15.1 °F 7.7 °F 10.0 °F 80% 30.19 in 10.0 mi WNW 4.6 mph - N/A   Clear
2:52 AM 7.0 °F 0.1 °F 5.0 °F 92% 30.19 in 10.0 mi East 3.5 mph - N/A   Clear
3:52 AM 10.9 °F - 7.0 °F 84% 30.20 in 10.0 mi Calm Calm - N/A   Clear
4:52 AM 7.0 °F 0.1 °F 3.9 °F 87% 30.19 in 10.0 mi ESE 3.5 mph - N/A   Partly Cloudy
5:52 AM 8.1 °F -0.5 °F 3.9 °F 83% 30.19 in 10.0 mi South 4.6 mph - N/A   Overcast
6:52 AM 10.9 °F 2.9 °F 8.1 °F 88% 30.17 in 10.0 mi ESE 4.6 mph - N/A   Overcast
7:52 AM 14.0 °F 3.9 °F 10.0 °F 84% 30.14 in 10.0 mi SE 6.9 mph - N/A   Overcast
8:52 AM 15.1 °F 3.3 °F 12.0 °F 88% 30.13 in 10.0 mi SSE 9.2 mph - N/A   Overcast
9:52 AM 17.1 °F 5.0 °F 12.9 °F 84% 30.09 in 10.0 mi SSE 10.4 mph - N/A   Overcast
10:52 AM 19.0 °F 6.8 °F 14.0 °F 81% 30.06 in 8.0 mi SSE 11.5 mph - 0.00 in Snow Light Snow
11:10 AM 19.4 °F 6.0 °F 14.0 °F 80% 29.98 in 2.0 mi SSE 13.8 mph - 0.00 in Snow Light Snow
11:17 AM 19.4 °F 6.0 °F 15.8 °F 86% 29.97 in 1.2 mi SSE 13.8 mph - 0.00 in Snow Light Snow
11:49 AM 19.4 °F 7.2 °F 15.8 °F 86% 29.95 in 2.0 mi SSE 11.5 mph - 0.01 in Snow Light Snow
11:52 AM 19.9 °F 7.3 °F 17.1 °F 89% 30.04 in 3.0 mi SSE 12.7 mph - 0.01 in Snow Light Snow
12:04 PM 21.2 °F 8.9 °F 17.6 °F 86% 29.94 in 2.5 mi SSE 12.7 mph - 0.00 in Snow Light Snow
12:43 PM 21.2 °F 7.3 °F 17.6 °F 86% 29.90 in 10.0 mi SSE 16.1 mph - 0.00 in   Overcast
12:52 PM 21.9 °F 7.3 °F 17.1 °F 82% 29.98 in 10.0 mi SSE 18.4 mph - 0.00 in   Overcast
1:30 PM 23.0 °F 8.3 °F 17.6 °F 80% 29.85 in 2.0 mi SSE 19.6 mph 24.2 mph 0.00 in Snow Light Snow
1:40 PM 23.0 °F 8.7 °F 17.6 °F 80% 29.85 in 7.0 mi SSE 18.4 mph - 0.00 in Snow Light Snow
1:52 PM 24.1 °F 10.1 °F 18.0 °F 77% 29.93 in 10.0 mi SSE 18.4 mph - 0.00 in   Overcast
2:52 PM 26.1 °F 14.5 °F 17.1 °F 69% 29.89 in 10.0 mi South 13.8 mph 21.9 mph N/A   Overcast
3:26 PM 26.6 °F 14.3 °F 19.4 °F 74% 29.76 in 2.5 mi South 16.1 mph - 0.00 in Snow Light Snow
3:36 PM 26.6 °F 15.2 °F 19.4 °F 74% 29.75 in 7.0 mi South 13.8 mph - 0.00 in Snow Light Snow
3:52 PM 26.1 °F 13.6 °F 19.0 °F 75% 29.83 in 10.0 mi SSE 16.1 mph - 0.00 in   Overcast
4:52 PM 26.1 °F 14.5 °F 19.9 °F 78% 29.82 in 10.0 mi SSE 13.8 mph - N/A   Overcast
5:52 PM 27.0 °F 17.3 °F 19.9 °F 75% 29.79 in 10.0 mi South 10.4 mph - N/A   Overcast
6:52 PM 28.0 °F 20.0 °F 21.0 °F 75% 29.76 in 10.0 mi SSE 8.1 mph - N/A   Overcast
7:52 PM 27.0 °F 18.0 °F 21.0 °F 78% 29.72 in 10.0 mi South 9.2 mph - N/A   Mostly Cloudy
8:52 PM 25.0 °F 20.7 °F 19.9 °F 81% 29.70 in 10.0 mi SE 3.5 mph - N/A   Clear
9:52 PM 21.9 °F 14.5 °F 19.0 °F 89% 29.68 in 10.0 mi SE 5.8 mph - N/A   Scattered Clouds
10:52 PM 21.9 °F 14.5 °F 19.0 °F 89% 29.66 in 10.0 mi SE 5.8 mph - N/A   Clear
11:52 PM 21.0 °F 14.6 °F 18.0 °F 88% 29.66 in 10.0 mi East 4.6 mph - N/A   Clear